Home > Weather > Paris > Past weeks

Flag for France Weather for the Past 2 Weeks in Paris, Île-de-France, France

Now
55 °F

Passing clouds.


Feels Like: 55 °F
Forecast: 44 / 60 °F
Wind: 3 mph from Northwest

Location: Villacoublay

Current Time: May 2, 2016 at 11:00:04 AM

Latest Report: May 2, 2016 at 10:30 AM


Visibility: N/A

Pressure: 30.30 "Hg

Humidity: 44%

Dew Point: 34 °F

Location of ParisLocation

Historic Weather in Paris — Graph

°F

Paris Temperature Yesterday

Maximum temperature yesterday: 57 °F (at 4:00 PM)
Minimum temperature yesterday: 36 °F (at 6:30 AM)
Average temperature yesterday: 48 °F

High & Low Weather Summary for the Past Weeks

 TemperatureHumidityPressure
High70 °F (Apr 21, 5:00 PM)100% (Apr 26, 6:00 AM)30.36 "Hg (Apr 26, 6:00 AM)
Low32 °F (Apr 28, 4:30 AM)30% (Apr 18, 2:30 PM)29.71 "Hg (Apr 26, 2:00 AM)
Average48 °F68%30.07 "Hg
* Reported Apr 17 10:00 AM — May 2 10:00 AM, Paris, Weather by CustomWeather, © 2016

Note: Actual official high and low records may vary slightly from our data, if they occured in-between our weather recording intervals... More about our weather records

Advertising

Paris Weather History for the Previous 24 Hours

Scroll right to see more
 ConditionsComfort  
Time TempWeatherWind HumidityBarometerVisibility
10:00 AM
Mon, May 2
54 °FSunny.2 mph41%30.30 "Hg10 mi
9:30 AM52 °FSunny.2 mph47%30.30 "Hg10 mi
9:00 AM50 °FSunny.3 mph54%30.30 "Hg10 mi
8:30 AM48 °FSunny.3 mph62%30.30 "Hg10 mi
7:00 AM39 °FClear.No wind75%30.30 "Hg10 mi
6:30 AM39 °FClear.2 mph70%30.30 "Hg10 mi
6:00 AM41 °FClear.No wind66%30.30 "Hg10 mi
5:30 AM41 °FClear.2 mph66%30.33 "Hg10 mi
5:00 AM41 °FClear.2 mph66%30.33 "Hg10 mi
4:30 AM41 °FPassing clouds.3 mph70%30.33 "HgN/A
3:30 AM45 °FClear.5 mph57%30.33 "Hg10 mi
3:00 AM45 °FClear.6 mph61%30.33 "Hg10 mi
2:30 AM45 °FClear.7 mph66%30.36 "Hg10 mi
2:00 AM45 °FClear.7 mph66%30.36 "Hg10 mi
1:30 AM45 °FClear.7 mph66%30.36 "Hg10 mi
1:00 AM45 °FClear.6 mph66%30.36 "Hg10 mi
12:30 AM45 °FClear.6 mph66%30.36 "Hg10 mi
12:00 AM46 °FClear.6 mph62%30.36 "Hg10 mi
11:30 PM
Sun, May 1
48 °FClear.7 mph58%30.36 "Hg10 mi
11:00 PM48 °FClear.7 mph58%30.36 "Hg10 mi
10:30 PM50 °FClear.7 mph58%30.36 "Hg10 mi
10:00 PM52 °FSunny.8 mph54%30.36 "Hg10 mi
9:30 PM52 °FSunny.6 mph50%30.36 "Hg10 mi
9:00 PM54 °FSunny.8 mph47%30.36 "Hg10 mi
8:30 PM55 °FPassing clouds.7 mph44%30.33 "HgN/A
8:00 PM55 °FPassing clouds.9 mph41%30.33 "HgN/A
7:30 PM57 °FPassing clouds.8 mph41%30.33 "HgN/A
7:00 PM57 °FPassing clouds.12 mph41%30.33 "HgN/A
6:30 PM57 °FPassing clouds.10 mph41%30.33 "HgN/A
6:00 PM57 °FPassing clouds.13 mph41%30.33 "HgN/A
5:30 PM57 °FPassing clouds.13 mph39%30.33 "HgN/A
5:00 PM57 °FPassing clouds.12 mph39%30.33 "HgN/A
4:30 PM57 °FPassing clouds.10 mph41%30.33 "HgN/A
4:00 PM57 °FPassing clouds.14 mph39%30.33 "HgN/A
3:30 PM55 °FPassing clouds.12 mph41%30.33 "HgN/A
3:00 PM55 °FPassing clouds.14 mph44%30.33 "HgN/A
2:30 PM55 °FPassing clouds.13 mph41%30.33 "HgN/A
2:00 PM54 °FPassing clouds.14 mph44%30.33 "HgN/A
1:30 PM54 °FPassing clouds.15 mph44%30.33 "HgN/A
1:00 PM54 °FPassing clouds.10 mph44%30.33 "HgN/A
12:30 PM52 °FPassing clouds.14 mph50%30.33 "HgN/A
12:00 PM52 °FPassing clouds.12 mph54%30.33 "HgN/A
11:30 AM50 °FPassing clouds.14 mph50%30.36 "HgN/A
11:00 AM48 °FPassing clouds.10 mph58%30.36 "HgN/A
Weather by CustomWeather, © 2016

See weather overviewHow to use our weather pages